Location: Arbon
(43.0005°N, 0.7472°E)
Time: 11:20:01
(UTC+00:00)

Cosmos 1400 Rocket - Pass Details

Date: 22 April 2026
Orbit: 474 x 505 km, 81.1° (Epoch: 15 May)

Event Time Altitude Azimuth Distance (km) Brightness Sun altitude
Rises 19:51:19 0° 193° (SSW) 2,508 6.0 -11.5°
Reaches altitude 10° 19:53:23 10° 195° (SSW) 1,636 5.1 -11.8°
Maximum altitude 19:56:58 74° 280° (W) 500 2.7 -12.4°
Drops below altitude 10° 20:00:35 10° 6° (N) 1,659 5.6 -13.0°
Sets 20:02:42 0° 9° (N) 2,547 6.5 -13.3°
